Theta_e
348 348 347 350 350 348 350 349 348 349 350 350 350 346 348 349 349 346 345 345 343 343 349 348 346 345 344 344 344 343 343 342 342 341 340 340 339 339 339 337 337 335 336
349 349 346 348 350 349 348 348 347 348 350 344 349 348 348 348 348 348 345 344 340 334 337 339 340 341 343 343 343 343 342 343 343 343 342 342 341 340 340 338 337 337 335
350 349 346 350 346 345 348 348 349 347 349 350 350 348 348 348 347 346 346 347 345 341 341 341 341 340 342 342 342 343 343 343 343 344 344 345 344 343 342 339 337 337 337
348 349 351 352 348 347 347 350 346 347 348 350 351 350 347 349 348 348 347 348 347 345 343 343 343 342 341 342 342 343 342 340 336 336 341 343 344 345 344 341 338 337 336
351 346 350 349 350 349 350 345 343 349 350 352 349 348 347 349 350 349 350 349 350 349 348 345 344 342 340 339 341 341 341 338 337 337 338 340 342 344 344 344 342 338 338
350 347 348 350 348 349 350 349 349 350 350 349 348 348 348 349 351 349 349 347 349 350 350 350 347 344 341 338 341 339 339 339 338 336 335 333 332 334 337 341 343 343 341
353 351 351 348 348 348 349 348 347 343 349 350 349 348 347 348 351 352 351 348 349 347 349 348 350 346 343 339 336 337 338 338 338 338 337 337 336 333 330 334 337 340 343
351 352 348 346 350 346 348 345 340 341 346 350 347 348 348 345 345 347 347 348 349 348 348 349 350 347 344 341 337 334 334 336 335 330 330 332 333 335 332 330 333 340 343
351 352 349 348 348 345 348 343 340 346 345 349 347 348 349 347 346 346 347 347 347 348 348 349 351 348 345 342 338 333 333 334 331 326 326 325 324 328 329 330 330 337 342
351 351 350 346 346 349 349 346 346 344 342 344 345 345 347 351 351 348 347 346 344 346 347 349 350 348 345 342 339 336 329 329 329 325 324 324 323 322 324 328 329 336 341
351 353 353 353 348 349 351 347 347 348 346 347 345 347 348 349 345 347 347 346 346 348 348 348 348 348 345 341 340 338 334 329 327 325 324 322 323 323 324 327 329 338 343
351 351 351 351 341 350 351 351 348 350 350 349 349 350 352 353 353 352 351 348 349 347 349 347 345 346 345 343 341 339 337 330 325 325 324 325 326 325 325 328 330 341 343
352 352 352 354 352 353 352 352 350 351 353 352 352 353 355 355 352 352 353 350 353 349 347 347 344 343 344 344 343 341 337 331 325 324 324 325 327 328 328 329 331 335 343
352 351 350 352 351 351 351 353 352 353 353 353 352 351 354 354 353 353 356 354 354 352 352 350 344 341 345 345 344 341 334 329 325 323 324 325 326 327 329 329 331 333 338
350 351 352 352 351 351 352 354 354 354 353 354 355 356 355 353 352 351 353 353 356 356 353 350 346 344 345 344 344 341 330 325 323 322 321 321 324 325 327 329 330 332 334
353 346 347 350 351 352 354 356 355 354 350 349 350 348 349 348 349 349 350 351 353 356 357 351 350 347 346 344 343 340 331 326 322 323 323 322 322 322 324 326 327 330 331
352 348 353 354 354 356 355 355 354 351 349 349 349 347 346 346 341 342 349 352 354 355 356 354 354 350 349 347 344 341 335 328 323 325 323 324 325 325 325 326 327 328 329
348 347 349 349 350 351 350 353 355 354 352 349 346 347 346 339 335 336 341 350 354 355 355 354 354 354 353 349 346 343 338 333 326 325 326 324 325 326 326 326 326 327 329
345 345 348 349 349 349 349 350 347 342 339 338 339 339 339 335 335 334 336 350 354 354 356 354 353 353 354 350 349 345 342 337 330 326 326 326 326 326 326 326 326 327 329
347 346 347 345 346 343 338 337 335 335 337 335 335 335 335 337 336 334 339 347 353 358 354 352 352 352 353 349 349 349 346 342 336 329 327 326 326 326 326 326 327 326 327
340 335 335 336 337 337 336 333 332 328 327 331 332 333 339 343 340 339 340 326 321 325 337 348 348 347 348 344 345 348 347 344 340 332 331 328 327 326 325 326 327 326 326
339 339 338 337 336 332 328 323 321 322 320 320 321 323 326 326 325 321 318 317 316 318 324 335 338 341 344 345 349 347 347 346 342 339 334 331 327 326 325 327 327 326 326
337 336 335 333 332 328 321 318 318 318 317 316 316 316 317 319 320 318 316 316 314 315 319 322 325 331 343 350 347 346 348 345 345 342 336 332 330 328 325 326 326 326 326
334 329 321 320 318 317 316 315 316 317 317 318 318 320 319 318 317 317 314 313 314 316 321 327 329 328 335 341 342 346 343 344 345 342 338 333 331 330 326 326 327 325 326
318 317 317 318 319 319 319 320 321 321 322 323 324 324 324 323 324 325 323 323 324 324 328 326 325 324 324 323 339 350 347 345 344 343 340 335 332 331 328 326 326 326 325
317 317 318 318 318 318 321 323 324 325 325 325 324 324 324 324 324 325 326 328 328 327 327 325 324 324 326 325 337 344 341 341 343 341 340 335 333 331 327 325 327 326 326
Wind_Speed
7 9 8 7 8 6 5 5 5 6 5 6 4 4 2 1 2 2 2 1 3 5 5 8 6 6 7 9 10 12 14 15 16 17 18 19 19 18 15 21 21 20 18
8 9 7 8 7 5 4 5 7 9 8 6 2 2 2 2 3 5 3 5 7 8 4 1 3 5 6 7 7 8 10 13 15 16 17 20 20 21 20 21 23 23 23
6 6 6 7 4 3 5 5 7 7 4 3 3 3 1 2 4 5 5 4 5 7 6 5 6 6 6 7 5 5 7 8 10 13 17 20 21 21 20 20 25 23 22
4 2 4 4 4 3 6 6 5 5 6 6 6 6 4 3 4 3 3 1 4 4 6 5 6 8 7 6 6 5 6 7 8 10 12 13 18 20 20 22 26 28 28
5 4 5 5 3 4 6 3 5 8 5 6 8 7 5 3 2 1 2 4 4 5 7 9 9 9 10 7 5 6 7 6 6 5 5 6 9 15 19 21 25 31 29
5 4 4 4 4 4 5 6 6 7 6 5 3 4 3 4 3 3 3 4 5 6 9 11 13 13 13 11 5 4 4 6 8 6 6 6 9 12 14 19 24 28 28
7 5 6 4 3 5 7 7 9 10 5 2 3 2 1 4 5 7 7 7 7 8 9 11 14 15 14 12 7 5 4 6 7 11 11 12 11 12 14 17 19 24 29
9 7 7 6 6 4 6 9 11 7 4 3 4 5 4 5 7 8 11 10 10 10 10 10 13 14 14 13 11 9 5 6 10 13 15 18 19 17 17 17 19 21 29
11 10 9 9 6 5 5 6 2 2 4 5 5 4 4 3 9 10 8 9 12 13 14 14 14 13 12 12 12 11 9 10 12 14 13 13 15 15 17 19 20 20 25
8 6 8 8 7 6 4 6 4 5 4 5 7 7 7 8 5 8 10 10 9 11 12 14 15 14 13 12 11 12 12 12 15 15 14 12 11 13 15 17 19 20 23
11 12 11 12 11 11 8 7 7 5 7 7 9 10 9 9 10 12 15 11 14 14 12 11 13 16 14 12 11 11 12 13 15 15 14 14 12 12 13 15 17 19 22
10 12 14 14 7 9 11 8 9 7 6 9 10 11 11 12 14 13 16 17 18 15 14 12 12 14 15 14 12 11 12 13 14 15 14 13 12 11 11 11 13 14 19
11 10 10 11 10 12 14 11 10 9 10 11 11 11 12 14 16 16 18 18 20 20 20 17 14 14 14 14 13 13 13 12 13 14 13 12 11 10 10 10 11 13 20
13 14 13 13 13 11 9 12 12 12 12 13 13 13 13 14 17 18 19 21 22 23 21 20 15 13 13 13 13 13 13 12 12 13 13 11 11 10 10 10 10 13 18
17 16 17 17 16 15 11 12 14 15 15 16 14 13 13 13 14 19 20 21 23 27 29 20 17 18 14 14 14 13 12 12 12 12 12 12 12 12 11 11 11 13 12
17 17 19 19 18 16 15 16 18 19 19 19 19 17 14 12 11 15 20 25 24 23 30 27 25 21 17 16 15 14 13 12 11 10 10 11 12 13 13 13 14 14 16
20 19 18 19 19 17 18 19 22 22 21 20 20 17 17 20 20 28 22 26 25 25 29 30 27 24 21 18 17 16 15 12 10 9 9 10 12 14 15 14 13 14 17
18 17 18 18 18 20 19 17 18 17 16 16 19 22 19 16 25 49 34 26 24 23 25 28 27 27 27 21 19 19 16 14 11 11 10 12 14 16 14 13 12 14 15
16 18 20 20 20 17 14 8 7 11 15 20 21 18 23 24 33 20 37 26 22 23 24 26 26 27 29 26 23 21 19 17 14 11 12 12 14 14 13 12 10 14 15
15 17 17 11 11 11 12 13 13 14 14 11 11 15 16 18 13 20 25 23 25 24 26 27 28 29 30 28 27 25 23 20 17 14 13 13 14 14 13 12 11 14 14
13 11 10 8 9 13 16 15 16 14 13 14 14 15 16 18 18 21 25 23 25 29 29 27 29 31 31 32 32 27 24 23 21 19 15 15 14 14 13 12 13 13 14
19 16 20 20 17 16 17 18 17 17 16 15 15 15 15 15 16 19 23 26 29 30 31 30 32 34 34 32 30 25 25 24 25 24 20 15 14 13 13 11 12 12 15
21 18 16 15 16 17 17 18 20 20 20 19 19 19 20 22 24 27 29 31 32 31 32 32 33 34 33 27 25 24 25 26 27 24 18 16 14 13 13 11 11 13 12
27 23 17 16 17 17 17 19 19 19 18 18 19 18 19 20 22 24 28 31 31 30 28 26 25 27 29 30 28 27 29 22 23 24 24 24 18 14 14 12 12 11 11
16 15 14 13 13 13 15 16 16 17 17 16 16 16 17 17 17 21 24 25 25 24 22 23 26 27 28 27 28 30 27 22 23 25 24 25 22 16 15 13 12 12 12
15 14 13 14 14 13 13 14 15 16 17 18 18 17 16 16 15 17 20 22 24 23 24 24 26 26 26 25 25 29 26 25 24 25 24 25 23 17 15 15 15 15 13
Wind_Direction
251 272 297 322 317 318 322 320 331 345 326 318 284 292 263 271 219 129 67 59 354 331 298 274 284 287 287 293 283 267 260 257 257 254 251 248 247 243 241 226 221 212 221
263 269 276 316 320 303 297 326 330 322 326 306 309 303 303 260 229 202 133 84 71 72 79 40 309 313 310 315 295 281 270 261 259 259 255 251 248 245 242 231 223 215 205
271 267 278 300 307 292 290 316 332 340 9 343 332 2 192 118 159 175 170 93 79 71 62 48 28 6 328 322 311 290 282 275 269 261 254 249 248 247 243 231 221 219 217
236 259 293 302 315 291 293 309 316 325 339 320 289 292 284 191 181 144 173 13 45 37 32 13 7 6 356 324 304 288 292 293 282 267 257 255 247 243 239 231 224 223 225
257 263 264 271 281 273 285 276 323 343 328 318 298 275 263 212 133 136 358 8 340 353 1 4 358 356 359 346 313 292 299 308 300 285 265 251 245 240 238 236 233 230 232
275 261 266 269 254 252 265 286 326 332 329 318 330 18 220 212 178 206 299 341 338 324 339 345 346 347 352 359 342 322 298 309 309 294 278 267 261 252 242 237 241 243 243
271 266 255 247 221 264 301 282 306 311 307 307 281 303 283 230 227 248 274 305 320 326 332 329 331 337 342 351 349 330 316 303 298 300 289 276 269 267 258 251 245 245 235
257 263 262 264 258 290 293 300 307 288 293 297 299 286 297 281 263 279 285 285 290 301 311 309 312 325 332 334 340 334 322 294 290 296 288 283 274 263 261 255 252 248 239
256 259 254 262 269 297 311 317 291 353 312 286 310 317 310 299 312 299 300 292 292 292 298 297 300 310 314 322 330 326 315 303 309 311 308 296 286 271 260 255 254 248 238
239 244 237 254 265 267 300 316 296 295 305 317 303 304 295 295 314 316 325 309 309 301 296 294 296 301 305 313 320 321 313 313 318 321 314 312 302 285 269 256 256 252 239
255 263 253 248 264 260 260 285 312 327 293 305 301 299 289 302 294 286 300 308 305 314 302 300 296 293 296 302 311 312 310 312 319 320 318 314 306 295 280 267 264 258 234
261 261 259 261 265 279 269 261 275 289 298 286 300 297 301 297 303 306 298 303 314 323 318 305 300 297 292 294 304 307 313 306 317 320 319 319 312 300 288 277 268 254 223
249 252 251 245 265 297 249 243 265 277 294 300 288 294 293 306 307 308 310 304 309 314 315 312 312 306 294 294 300 309 311 303 313 315 314 316 313 309 296 285 263 252 231
258 263 258 254 270 285 251 234 255 268 285 291 296 296 304 306 303 303 304 303 303 301 305 317 319 321 301 298 299 305 306 300 307 315 315 312 306 300 297 283 272 260 236
256 261 259 265 269 266 255 241 252 256 268 270 269 271 281 290 305 308 302 300 299 300 308 314 313 329 312 311 304 302 306 302 306 312 314 309 302 294 290 283 268 259 251
258 266 258 259 261 259 254 250 257 261 264 275 275 271 273 296 300 309 311 300 294 292 293 302 307 313 312 303 305 299 303 303 299 308 317 314 305 296 291 284 270 259 256
261 274 262 261 257 261 264 267 267 271 274 279 280 278 282 287 310 328 311 301 293 289 290 298 304 305 309 299 298 295 295 298 292 297 309 312 315 306 291 284 276 266 258
259 267 264 267 267 269 266 264 273 276 279 292 301 287 270 286 296 286 294 289 289 285 285 286 291 301 303 300 288 284 284 289 287 284 292 301 311 317 293 285 281 272 264
249 258 267 267 266 267 272 251 264 275 282 281 284 275 275 281 304 234 252 285 290 284 282 279 284 287 293 295 288 283 280 279 278 275 282 291 307 317 303 282 281 277 269
267 262 267 272 273 265 264 262 274 286 280 274 267 269 278 288 280 227 250 281 284 284 281 282 283 283 285 288 281 280 281 280 273 270 275 281 295 306 302 285 273 282 279
284 280 276 280 282 277 278 278 276 274 272 268 268 268 264 257 235 245 264 276 281 278 273 271 276 279 279 283 284 288 284 284 266 260 267 276 280 297 292 287 269 283 290
297 271 272 277 280 275 273 276 275 276 277 274 270 272 269 260 257 266 270 273 274 274 275 277 277 278 280 285 290 286 280 275 260 260 263 273 268 287 283 286 269 281 291
282 278 271 270 275 273 273 277 282 283 282 280 277 274 271 271 269 267 268 267 268 270 272 276 277 278 282 282 286 279 281 269 274 263 259 265 268 280 277 272 271 269 279
265 269 273 272 272 271 274 278 281 284 283 281 282 281 278 277 276 273 267 266 267 268 270 271 274 279 278 274 272 273 278 267 261 256 251 255 265 271 271 266 266 265 268
263 271 277 276 279 286 289 287 284 279 278 278 277 279 285 285 280 277 275 274 269 263 263 271 279 285 286 276 265 269 265 256 254 256 250 246 255 262 266 259 259 256 263
273 278 282 288 293 293 291 292 288 281 274 273 272 278 282 285 288 287 276 267 266 265 268 275 284 289 284 275 258 259 261 262 258 264 255 238 249 251 257 256 251 245 247